Location: Bakov nad Jizerou
(50.4784°N, 14.9394°E)
Time: 16:27:28
(UTC+00:00)

Cosmos 2322 - Pass Details

Date: 24 October 2021
Orbit: 841 x 854 km, 71.0° (Epoch: 04 December)

Event Time Altitude Azimuth Distance (km) Brightness Sun altitude
Exits shadow 00:24:19 10° 12° (NNE) 2,488 6.6 -46.2°
Maximum altitude 00:24:26 10° 13° (NNE) 2,488 6.6 -46.2°
Drops below altitude 10° 00:24:46 10° 16° (NNE) 2,490 6.6 -46.2°
Sets 00:30:33 0° 62° (ENE) 3,420 7.5 -45.6°
